User: anonymous   Login
Location: Unspecified
(0.0000°N, 0.0000°E)
Time: 08:00:35
(UTC+00:00)
Language:

ASTRA 1KR - Orbit

View from above orbital plane
View from above orbital plane
View from above satellite
View from above satellite

Ground track
Ground track

The orbit data is extracted from the following two-line orbital elements,

1 29055U 06012A   16121.74582029  .00000110  00000-0  00000+0 0  9999
2 29055   0.0612 314.4114 0003197  43.8355 148.5373  1.00272255 36653
Epoch (UTC): 30 April 2016 17:53:58
Eccentricity: 0.0003197
inclination: 0.0612°
perigee height: 35772 km
apogee height: 35799 km
right ascension of ascending node: 314.4114°
argument of perigee: 43.8355°
revolutions per day: 1.00272255
mean anomaly at epoch: 148.5373°
orbit number at epoch: 3665

The dashed part of the orbit path shows where the satellite is in the earth's shadow,  

DLR